STARLINK-1661, 46355

Orbit data source: Space-Track

STARLINK-1661, 46355 is a payload satellite owned by SpaceX/Seattle (US) in LEO that was launched on Thu, 03 Sep 2020 UTC via an FALCON 9 launch vehicle from the Air Force Eastern Test Range (AFETR). Payload-class satellites include a variety of spacecraft equipped with specific instruments for various scientific and technological missions. These include communications satellites like Starlink; space stations such as the ISS; scientific satellites like the Hubble; Earth observation satellites from companies like Planet Labs, Umbra, and HawkEye 360; GPS; miniature CubeSats for education and research; and military/defense satellites.

Loading next visibility...
Identifier
46355, 2020-062AG
Orbit
LEO
Country
Flag of USUS
Related business
Manufacturer
SpaceX/Seattle
Mission
Operational Commercial Communications
Bus & Motor
STARLINK, Unknown motor
Mass
260 kg wet, ~248 kg dry
Launch date (UTC)
2020-09-03 (5 years ago)
Launch vehicle
FALCON 9
Launch site
Air Force Eastern Test Range (AFETR)
Object type
Payload
Rocket body
Debris
Shape & HBR
Box + 1 Pan, 10.1 m
Radar Cross Section
13.562 m², Large (>1 m²)

Expand to show TLE details & history
Last TLE update: 17 hours ago

TLE from 17 hours ago
0 STARLINK-1661
1 46355U 20062AG  25293.24947760  .00000277  00000-0  37528-4 0  9998
2 46355  53.0542 287.0781 0001569  93.8598 266.2571 15.06389675283147
Epoch: 2025-10-20T05:59Z
TLE epoch observation values (Epoch: 2025-10-20T05:59:14.864Z)
Latitude
0.00002°
Longitude
168.31168°
Altitude
548.193 km
Speed
7.589 km/s
True Right ascension
19h 08m 18s
True Declination
0° 00' 00"
Sunlit
Object was in daylight at epoch
Visualization orbit readout
Latitude
Unknown
Longitude
Unknown
Altitude
Unknown
Speed
Unknown
Apparent Right ascension
Unknown
Apparent Declination
Unknown
Sunlit
N/A
Visualization observer readout
Local Sidereal Time
18:02:08
Azimuth
Unknown
Elevation
Unknown
Doppler factor
Unknown
Orbital elements
Apogee altitude
548.601 km
Perigee altitude
546.427 km
Semi-major axis
6,925.651 km
Eccentricity
0.00016
Inclination
53.0542°
RAAN
287.0781°
Arg. of periapsis
93.8598°
True anomaly
266.23916°
Mean anomaly
266.2571°
Eccentric anomaly
266.24813°
Mean motion
3.76576 °/min
Orbital period
95.6 mins
BSTAR
0.000037528
Loading maneuver chart data...
Computing Atmospheric mass density...

Documentation

Showing up to 5 results
|